Regional Weather Roundup
Issued by NWS Midland/Odessa, TX

Skip options and go directly to product.
Home | Oldest Version | Previous Version | Current Version | All | Text Only | Save Text | Print | Product List | Glossary On

Skip product version selection by date and time.   
524
ASUS44 KMAF 061410
RWRMAF
MIDLAND AREA WEATHER ROUNDUP
NATIONAL WEATHER SERVICE MIDLAND TX
800 AM CST FRI MAR 06 2015

...IN SOUTHWEST TEXAS AND SOUTHEAST NEW MEXICO...

CITY           SKY/WX    TMP DP  RH WIND       PRES   REMARKS
ALPINE         PTCLDY    33  27  80 SW7       30.44R WCI  26
ANDREWS        FAIR      26  24  91 CALM      30.43R
ARTESIA        FOG       23  23 100 S3        30.41R VSB<1/4
BIG SPRING     MOSUNNY   26  21  80 S6        30.49R WCI  20
CARLSBAD       FOG       22  20  92 CALM      30.41R VSB<1/4
DRYDEN           N/A     33  27  78 NE7       30.47R WCI  27
FORT STOCKTON  PTCLDY    28  27  96 CALM      30.43R
GUAD PASS      NOT AVBL
HOBBS          CLEAR     25  25 100 CALM      30.40S
MARFA          PTCLDY    25  23  93 N6        30.39S WCI  18
MIDLAND AIRPK  PTCLDY    30  23  74 S7        30.45S WCI  23
MIDLAND INTL   CLEAR     27  22  81 S8        30.43S WCI  19
ODESSA         CLEAR     29  21  72 S9        30.43S WCI  20
PECOS          PTCLDY    26  24  94 CALM      30.45R FOG
PRESIDIO       FAIR      36  25  63 CALM      30.42R
SEMINOLE       PTCLDY    24  23  98 CALM      30.43R FOG
SNYDER         MOSUNNY   24  20  85 S3        30.49R
WINK           CLEAR     26  21  81 CALM      30.42R
$$
...OTHER STATIONS IN TEXAS...

CITY           SKY/WX    TMP DP  RH WIND       PRES   REMARKS
ABILENE        SUNNY     29  19  66 S9        30.52R WCI  20
AMARILLO       CLEAR     28  23  81 SW10      30.35S WCI  19
AUSTIN         PTSUNNY   31  26  82 CALM      30.60R
BROWNSVILLE    CLOUDY    45  34  65 NW12G20   30.53R WCI  39
CORPUS CHRISTI CLOUDY    38  27  64 NE17      30.58R WCI  28
DALLAS FTW     MOSUNNY   30  24  78 SW6       30.57S WCI  24
DEL RIO        SUNNY     33  27  78 SE5       30.55R WCI  29
EL PASO        CLEAR     30  20  66 NE3       30.38R
HOUSTON INT    PTSUNNY   33  25  72 VRB7      30.59R WCI  27
LUBBOCK        CLEAR     27  24  89 SW7       30.41R WCI  19
SAN ANGELO     MOSUNNY   26  22  84 CALM      30.51R
SAN ANTONIO    PTSUNNY   34  19  54 NE5       30.59R WCI  30
WACO           SUNNY     26  23  88 CALM      30.61R
WICHITA FALLS  NOT AVBL
$$
...OTHER LOCATIONS IN NEW MEXICO...

CITY           SKY/WX    TMP DP  RH WIND       PRES   REMARKS
ALAMAGORDO     CLEAR     25  19  80 NE5       30.37S WCI  19
ALBUQUERQUE    PTCLDY    30  16  56 N9        30.38S WCI  22
CANNON AFB     CLEAR     23  22  93 NW10      30.35R WCI  13
CLOVIS         CLEAR     23  21  93 W6        30.35R WCI  16
HOLLOMAN AFB   CLEAR     26  21  82 N5        30.37R WCI  20
ROSWELL        FOG       24  23  96 S5        30.39S VSB 1/4 WCI  18
RUIDOSO        PTCLDY    28   7  40 W6        30.37S WCI  22
SANTA FE       CLEAR     24  13  62 NW8       30.35R WCI  15
TRUTH OR CONSE CLEAR     30  14  51 NW7       30.36S WCI  23
TUCUMCARI      CLEAR     25  22  88 W8        30.34R WCI  16
$$

USA.gov is the U.S. government's official web portal to all federal, state and local government web resources and services.